[[{"header":{"parameterUnit":"m.s-1","parameterCategory":1,"la1":30.2991,"la2":30.254,"lo1":-89.0895,"lo2":-89.0444,"dy":0.0017,"dx":0.0017,"nx":28,"ny":28,"refTime":"2024-12-12T09:00:00:Z","depth":0,"parameterNumber":2,"parameterNumberName":"U-component_of_WINDS"},"data":[0,0,0,0,0,0,0,0,0,0,0,0,0,0,0,0,0,0,0,0,0,0,0,0,0,0,0,0,0,0,0,0,0,0,0,0,0,0,0,0,0,0,0,0,0,0,0,0,0,0,0,0,0,0,0,0,0,0,-7.6905,-7.6905,0,-7.6956,-7.6957,-7.6957,-7.6772,-7.6766,-7.6761,-7.6755,-7.6809,-7.6816,-7.6822,0,0,0,0,0,0,0,0,0,0,0,0,0,-7.6648,-7.6654,-7.6905,-7.6905,-7.6906,-7.6956,-7.6957,-7.6958,-7.6773,-7.6766,-7.6759,-7.6753,-7.6807,-7.6815,-7.6823,0,0,0,0,0,0,0,0,0,0,0,0,0,-7.6736,-7.6655,-7.6905,-7.682,-7.6813,-7.6956,-7.6957,-7.6958,-7.6774,-7.6766,-7.6758,-7.675,-7.6804,-7.6814,-7.6824,-7.7051,0,0,-7.6854,-7.6858,0,0,0,0,0,0,0,0,-7.6731,-7.6745,-7.6832,-7.6826,-7.6818,-7.6849,-7.6886,-7.6989,-7.6776,-7.6789,-7.6755,-7.6746,-7.6829,-7.6837,-7.6864,-7.7054,-7.7056,-7.6855,-7.6861,-7.6865,-7.6868,0,0,0,0,0,0,0,-7.6725,-7.6742,-7.6925,-7.6833,-7.6825,-7.678,-7.6783,-7.6904,-7.6855,-7.6787,-7.6774,-7.6782,-7.6824,-7.6855,-7.6864,-7.7057,-7.6855,-7.6863,-7.687,-7.6873,-7.7436,-7.7445,0,0,0,0,0,0,-7.673,-7.6738,-7.6923,-7.6927,-7.6753,-7.6791,-7.6795,-7.6848,-7.6853,-7.6846,-7.679,-7.6774,-7.6843,-7.6853,-7.6866,-7.7132,-7.6865,-7.6874,-7.688,-7.7427,-7.7438,-7.7448,0,0,0,0,0,0,-7.6725,-7.6748,-7.6921,-7.6829,-7.6847,-7.6804,-7.6865,-7.6853,-7.6884,-7.6855,-7.6845,-7.6831,-7.6836,-7.6852,-7.7007,-7.7131,-7.6879,-7.6888,-7.7417,-7.743,-7.7443,-7.7667,0,0,0,0,0,0,-7.6719,-7.6748,-7.6833,-7.6832,-7.6853,-7.7062,-7.6873,-7.686,-7.6902,-7.6881,-7.6891,-7.6885,-7.6831,-7.6993,-7.7017,-7.714,-7.6896,-7.7405,-7.7423,-7.7439,-7.7648,-7.7687,-7.7719,0,0,0,0,0,-7.671,-7.6894,-7.6838,-7.6862,-7.6959,-7.7069,-7.7081,-7.7015,-7.6912,-7.6998,-7.698,-7.6884,-7.7114,-7.701,-7.7035,-7.7164,-7.7397,-7.7418,-7.7437,-7.7632,-7.7679,-7.7719,0,0,0,0,0,0,-7.6911,-7.6893,-7.683,-7.702,-7.7048,-7.7038,-7.7143,-7.7067,-7.7124,-7.7103,-7.702,-7.7024,-7.7193,-7.7194,-7.7079,-7.7385,-7.7238,-7.7264,-7.7378,-7.7422,-7.7457,-7.7452,-7.6904,0,0,0,0,0,-7.6978,-7.7068,-7.7047,-7.7216,-7.7234,-7.7187,-7.7233,-7.718,-7.7205,-7.7216,-7.7208,-7.7237,-7.7315,-7.7369,-7.7439,-7.7648,-7.7648,-7.7749,-7.7785,-7.7814,-7.7837,-7.7948,-7.7993,-7.7514,-7.7514,-7.7514,0,0,-7.7115,-7.7117,-7.7179,-7.7257,-7.7272,-7.7368,-7.7198,-7.7307,-7.7377,-7.7232,-7.7377,-7.7374,-7.74,-7.7584,-7.7664,-7.7589,-7.797,-7.784,-7.7864,-7.7871,-7.7973,-7.8019,-7.8059,-7.7528,-7.7526,-7.7523,0,0,-7.7415,-7.7426,-7.7567,-7.7587,-7.7612,-7.758,-7.7615,-7.7617,-7.7609,-7.7754,-7.7647,-7.7731,-7.7868,-7.7891,-7.7921,-7.8232,-7.8147,-7.8258,-7.8443,-7.8551,-7.8589,-7.8622,-7.8732,-7.8773,-7.8282,-7.8282,-7.8282,0,-7.7583,-7.7723,-7.765,-7.7766,-7.7804,-7.7678,-7.7822,-7.7844,-7.7892,-7.7921,-7.7837,-7.8007,-7.8016,-7.8202,-7.8279,-7.8308,-7.8344,-7.8255,-7.859,-7.8622,-7.8652,-7.8756,-7.8798,-7.8295,-7.8294,-7.8292,-7.8291,0,-7.7928,-7.8027,-7.8139,-7.8188,-7.8238,-7.8368,-7.8315,-7.8376,-7.832,-7.8297,-7.8447,-7.8453,-7.8523,-7.8564,-7.851,-7.8744,-7.8697,-7.8604,-7.8453,-7.8712,-7.8808,-7.8848,-7.8314,-7.831,-7.8306,-7.8302,0,0,-7.8353,-7.8362,-7.8404,-7.8425,-7.8445,-7.852,-7.8645,-7.8713,-7.8766,-7.8804,-7.8906,-7.9026,-7.894,-7.8974,-7.8922,-7.9018,-7.9264,-7.8912,-7.8911,-7.8976,-7.9521,-7.959,-7.9638,-7.9208,-7.9215,-7.9221,-7.9518,0,-7.8647,-7.8858,-7.8798,-7.901,-7.9101,-7.8984,-7.9092,-7.9117,-7.91,-7.9175,-7.9156,-7.9242,-7.9122,-7.9142,-7.9232,-7.9215,-7.9372,-7.9193,-7.9302,-7.9306,-7.9297,-7.9688,-7.9761,-8.0041,-7.9556,-7.9562,-7.9567,0,-7.9016,-7.9069,-7.9291,-7.9296,-7.9332,-7.9431,-7.9489,-7.9562,-7.9588,-7.9569,-7.9609,-7.9538,-7.9661,-7.9513,-7.9681,-7.9561,-7.9602,-7.9601,-7.961,-7.9616,-7.9451,-7.9703,-8.0129,-8.017,-7.9626,-7.9621,-7.9617,0,-7.9303,-7.943,-7.9578,-7.96,-7.9611,-7.9683,-7.9691,-7.9708,-7.9754,-7.9805,-7.9834,-7.99,-7.9936,-7.9988,-7.9937,-7.9834,-8.0114,-7.9961,-8.0101,-8.0103,-8.0163,-8.0159,-8.06,-8.0194,-8.0193,-8.0192,-8.0192,0,-7.9636,-7.9776,-7.9707,-7.9799,-7.9952,-7.9882,-8.0037,-8.0031,-8.0049,-8.0137,-8.0041,-8.0127,-8.0055,-8.0135,-8.0096,-8.0241,-8.0259,-8.0246,-8.0234,-8.0254,-8.0255,-8.0278,-8.0257,-8.0203,-8.0201,-8.0199,-8.0197,0,-7.998,-7.994,-8.0094,-8.0092,-8.0095,-8.0209,-8.0207,-8.0292,-8.0269,-8.0383,-8.0405,-8.037,-8.0458,-8.0413,-8.0506,-8.048,-8.0667,-8.0629,-8.0658,-8.0647,-8.0789,-8.0776,-8.1257,-8.1317,-8.0875,-8.0879,-8.0883,0,-8.0194,-8.0299,-8.0309,-8.0361,-8.0375,-8.0462,-8.0507,-8.0444,-8.0496,-8.0534,-8.0615,-8.0696,-8.0756,-8.0904,-8.0886,-8.0957,-8.0919,-8.1083,-8.0929,-8.0945,-8.0919,-8.0913,-8.0923,-8.1113,-8.1118,-8.1123,-8.1126,0,-8.0577,-8.0552,-8.0622,-8.0687,-8.0744,-8.0792,-8.0831,-8.088,-8.0817,-8.0881,-8.097,-8.1018,-8.1112,-8.1193,-8.1255,-8.1263,-8.1185,-8.1176,-8.1211,-8.1231,-8.1243,-8.1237,-8.0741,-8.1164,-8.116,-8.1157,-8.1155,-8.1154,-8.0861,-8.0949,-8.097,-8.1051,-8.1074,-8.1114,-8.1193,-8.1181,-8.1255,-8.1326,-8.1285,-8.139,-8.1415,-8.1489,-8.1508,-8.159,-8.1524,-8.1577,-8.1589,-8.1603,-8.1621,-8.1232,-8.1601,-8.16,-8.1599,-8.1598,-8.1597,0,-8.1238,-8.1246,-8.1322,-8.138,-8.1445,-8.1366,-8.1406,-8.1465,-8.1559,-8.1589,-8.1651,-8.1755,-8.1834,-8.1824,-8.1896,-8.1963,-8.1929,-8.1984,-8.1977,-8.198,-8.1676,-8.1637,-8.201,-8.201,-8.201,-8.201,-8.201,-8.201,-8.1441,-8.1585,-8.1564,-8.172,-8.1727,-8.1829,-8.1858,-8.1894,-8.1917,-8.2038,-8.2103,-8.2096,-8.211,-8.2183,-8.2252,-8.2247,-8.2277,-8.2345,-8.2327,-8.2043,-8.2002,-8.1963,-8.1925,-8.2353,-8.2354,-8.2624,-8.2626,-8.2628]},{"header":{"parameterUnit":"m.s-1","parameterCategory":1,"la1":30.2991,"la2":30.254,"lo1":-89.0895,"lo2":-89.0444,"dy":0.0017,"dx":0.0017,"nx":28,"ny":28,"refTime":"2024-12-12T09:00:00:Z","depth":0,"parameterNumber":3,"parameterNumberName":"V-component_of_WINDS"},"data":[0,0,0,0,0,0,0,0,0,0,0,0,0,0,0,0,0,0,0,0,0,0,0,0,0,0,0,0,0,0,0,0,0,0,0,0,0,0,0,0,0,0,0,0,0,0,0,0,0,0,0,0,0,0,0,0,0,0,-1.0835,-1.0835,0,-1.0831,-1.0831,-1.0831,-1.0833,-1.0834,-1.0834,-1.0834,-1.0827,-1.0827,-1.0827,0,0,0,0,0,0,0,0,0,0,0,0,0,-1.084,-1.084,-1.0835,-1.0835,-1.0835,-1.0831,-1.0831,-1.0831,-1.0833,-1.0834,-1.0834,-1.0834,-1.0827,-1.0827,-1.0827,0,0,0,0,0,0,0,0,0,0,0,0,0,-1.0837,-1.084,-1.0835,-1.0836,-1.0836,-1.0831,-1.0831,-1.0831,-1.0833,-1.0834,-1.0834,-1.0834,-1.0827,-1.0827,-1.0827,-1.082,0,0,-1.0825,-1.0825,0,0,0,0,0,0,0,0,-1.0837,-1.0837,-1.0836,-1.0836,-1.0836,-1.0833,-1.0831,-1.0827,-1.0833,-1.0834,-1.0834,-1.0834,-1.0829,-1.0828,-1.0827,-1.082,-1.082,-1.0825,-1.0825,-1.0825,-1.0825,0,0,0,0,0,0,0,-1.0838,-1.0837,-1.0834,-1.0836,-1.0836,-1.0835,-1.0835,-1.083,-1.0831,-1.0834,-1.0834,-1.0834,-1.0829,-1.0827,-1.0827,-1.082,-1.0825,-1.0825,-1.0825,-1.0824,-1.0803,-1.0802,0,0,0,0,0,0,-1.0838,-1.0837,-1.0834,-1.0834,-1.0837,-1.0835,-1.0834,-1.0834,-1.0831,-1.083,-1.0834,-1.0834,-1.0828,-1.0827,-1.0827,-1.0817,-1.0825,-1.0824,-1.0824,-1.0803,-1.0803,-1.0802,0,0,0,0,0,0,-1.0838,-1.0838,-1.0834,-1.0835,-1.0835,-1.0834,-1.0834,-1.0834,-1.0832,-1.083,-1.083,-1.0833,-1.0828,-1.0827,-1.0821,-1.0816,-1.0824,-1.0824,-1.0803,-1.0803,-1.0802,-1.0798,0,0,0,0,0,0,-1.0839,-1.0838,-1.0837,-1.0836,-1.0835,-1.083,-1.0833,-1.0833,-1.0832,-1.0832,-1.0829,-1.0829,-1.0828,-1.0822,-1.0821,-1.0816,-1.0823,-1.0804,-1.0803,-1.0803,-1.0798,-1.0797,-1.0796,0,0,0,0,0,-1.0839,-1.0836,-1.0837,-1.0837,-1.0834,-1.083,-1.0829,-1.0829,-1.0832,-1.0829,-1.0827,-1.0829,-1.0817,-1.0821,-1.082,-1.0815,-1.0804,-1.0803,-1.0803,-1.0799,-1.0797,-1.0796,0,0,0,0,0,0,-1.0838,-1.0836,-1.0837,-1.0835,-1.0832,-1.083,-1.0828,-1.0829,-1.0825,-1.0826,-1.0825,-1.0824,-1.0817,-1.0816,-1.082,-1.0807,-1.0811,-1.081,-1.0808,-1.0807,-1.0806,-1.0806,-1.0823,0,0,0,0,0,-1.0837,-1.0835,-1.0834,-1.0831,-1.083,-1.0829,-1.0827,-1.0827,-1.0825,-1.0824,-1.0821,-1.0818,-1.0813,-1.081,-1.0806,-1.0798,-1.0795,-1.0794,-1.0793,-1.0792,-1.0791,-1.0783,-1.0781,-1.08,-1.08,-1.08,0,0,-1.0836,-1.0835,-1.0834,-1.0831,-1.0829,-1.0825,-1.0828,-1.0825,-1.0821,-1.0823,-1.0816,-1.0814,-1.081,-1.0802,-1.0798,-1.08,-1.0784,-1.0791,-1.079,-1.0789,-1.0782,-1.078,-1.0778,-1.0799,-1.08,-1.08,0,0,-1.0832,-1.0832,-1.0828,-1.0826,-1.0823,-1.0822,-1.0821,-1.0818,-1.0816,-1.081,-1.081,-1.0805,-1.0797,-1.0793,-1.079,-1.078,-1.078,-1.0778,-1.0772,-1.0765,-1.0763,-1.0762,-1.0756,-1.0754,-1.0777,-1.0777,-1.0777,0,-1.0831,-1.0826,-1.0827,-1.0822,-1.0819,-1.082,-1.0815,-1.0812,-1.0808,-1.0805,-1.0807,-1.0795,-1.0792,-1.0782,-1.0779,-1.0777,-1.0774,-1.0779,-1.0764,-1.0762,-1.0761,-1.0755,-1.0753,-1.0777,-1.0777,-1.0777,-1.0777,0,-1.0823,-1.082,-1.0817,-1.0812,-1.0809,-1.0804,-1.0802,-1.0798,-1.0797,-1.0795,-1.0786,-1.0782,-1.0776,-1.0773,-1.0773,-1.0761,-1.0762,-1.0764,-1.0768,-1.0759,-1.0753,-1.0751,-1.0776,-1.0777,-1.0777,-1.0777,0,0,-1.0821,-1.0813,-1.0812,-1.0808,-1.0803,-1.08,-1.0793,-1.0787,-1.0782,-1.0778,-1.0771,-1.0763,-1.0763,-1.076,-1.0758,-1.0752,-1.074,-1.0754,-1.0754,-1.075,-1.0723,-1.0721,-1.0718,-1.074,-1.074,-1.0739,-1.0723,0,-1.0815,-1.0805,-1.0803,-1.0793,-1.0788,-1.0786,-1.078,-1.0775,-1.0772,-1.0765,-1.0761,-1.0754,-1.0757,-1.0754,-1.0748,-1.0743,-1.0734,-1.0744,-1.0731,-1.0731,-1.0731,-1.0716,-1.0714,-1.0699,-1.0721,-1.072,-1.072,0,-1.0807,-1.0802,-1.0791,-1.0783,-1.0781,-1.0776,-1.0767,-1.0762,-1.0755,-1.0752,-1.0746,-1.0745,-1.0735,-1.074,-1.0725,-1.0731,-1.0726,-1.0722,-1.0721,-1.0719,-1.0724,-1.0711,-1.0694,-1.0691,-1.0717,-1.0717,-1.0717,0,-1.0803,-1.0793,-1.0785,-1.0782,-1.0773,-1.0769,-1.0765,-1.0758,-1.0753,-1.0745,-1.0741,-1.0732,-1.0727,-1.0719,-1.0714,-1.0718,-1.0698,-1.0703,-1.0694,-1.0694,-1.0689,-1.069,-1.0669,-1.0688,-1.0688,-1.0688,-1.0688,0,-1.0796,-1.0789,-1.0783,-1.0778,-1.0768,-1.0765,-1.0756,-1.0751,-1.0744,-1.0736,-1.0734,-1.0726,-1.0721,-1.0712,-1.0707,-1.0694,-1.0692,-1.0688,-1.0687,-1.0688,-1.0688,-1.0683,-1.0683,-1.0687,-1.0688,-1.0688,-1.0688,0,-1.0791,-1.0787,-1.0777,-1.0768,-1.0766,-1.0759,-1.0751,-1.0744,-1.074,-1.0729,-1.0726,-1.0719,-1.0707,-1.0701,-1.0687,-1.0684,-1.0668,-1.0668,-1.0671,-1.067,-1.066,-1.066,-1.0635,-1.0631,-1.0654,-1.0654,-1.0654,0,-1.0787,-1.0781,-1.0771,-1.0765,-1.0761,-1.0753,-1.0747,-1.0742,-1.0735,-1.0724,-1.0718,-1.0706,-1.0696,-1.0677,-1.0669,-1.0657,-1.0656,-1.0648,-1.0655,-1.0654,-1.0653,-1.0653,-1.0651,-1.0647,-1.0647,-1.0646,-1.0646,0,-1.0778,-1.0775,-1.0767,-1.0757,-1.075,-1.0742,-1.0734,-1.0729,-1.0722,-1.0714,-1.0702,-1.0695,-1.0679,-1.0666,-1.0652,-1.0646,-1.0644,-1.0644,-1.0641,-1.0641,-1.0642,-1.0639,-1.0666,-1.0645,-1.0645,-1.0645,-1.0645,-1.0645,-1.0772,-1.0765,-1.0756,-1.0746,-1.0739,-1.073,-1.0723,-1.0716,-1.0706,-1.0693,-1.069,-1.0676,-1.0665,-1.0647,-1.064,-1.0627,-1.0629,-1.0625,-1.0624,-1.0622,-1.062,-1.0644,-1.0625,-1.0625,-1.0625,-1.0625,-1.0625,0,-1.0761,-1.0755,-1.0745,-1.0733,-1.0724,-1.0723,-1.0713,-1.0705,-1.0693,-1.0683,-1.0672,-1.0656,-1.0643,-1.0633,-1.0618,-1.061,-1.0608,-1.0606,-1.0606,-1.0604,-1.0621,-1.0625,-1.0607,-1.0607,-1.0607,-1.0607,-1.0607,-1.0607,-1.0755,-1.0743,-1.0738,-1.0721,-1.0714,-1.0701,-1.0694,-1.0685,-1.0676,-1.0659,-1.0647,-1.0641,-1.0629,-1.0613,-1.0599,-1.0596,-1.059,-1.0588,-1.0584,-1.0601,-1.0603,-1.0605,-1.0608,-1.0587,-1.0587,-1.0567,-1.0567,-1.0567]}]]